contact:dominique.lefevre@mio.osupytheas.fr, maurice.libes@osupytheas.fr, didier.mallarino@osupytheas.fr
Project:EMSO http://www.emso-fr.org/EMSO-France
Depth: 2436.0 m
Title:EMSO Ligure Ouest : Data MII capteur MICROCAT
DateTime_Computer,Latitude,Longitude,Temperature,Conductivity,Pressure,DateTime_Instrument
DateTime_Computer,Latitude,Longitude,degC,S m-1,dbar,DateTime_Instrument
2021-07-30T00:02:21Z,42.805,6.029,13.2990,4.60051,2470.567,2021-7-30T02:03:38Z
2021-07-30T00:05:24Z,42.805,6.029,13.3009,4.60058,2470.52,2021-7-30T02:06:42Z
2021-07-30T00:08:28Z,42.805,6.029,13.3006,4.60039,2470.544,2021-7-30T02:09:45Z
2021-07-30T00:11:31Z,42.805,6.029,13.3011,4.60032,2470.567,2021-7-30T02:12:48Z
2021-07-30T00:14:34Z,42.805,6.029,13.3012,4.60059,2470.544,2021-7-30T02:15:51Z
2021-07-30T00:17:37Z,42.805,6.029,13.3001,4.60047,2470.507,2021-7-30T02:18:54Z
2021-07-30T00:20:40Z,42.805,6.029,13.3014,4.60077,2470.507,2021-7-30T02:21:57Z
2021-07-30T00:23:43Z,42.805,6.029,13.3021,4.60057,2470.507,2021-7-30T02:25:00Z
2021-07-30T00:26:46Z,42.805,6.029,13.3014,4.60076,2470.544,2021-7-30T02:28:03Z
2021-07-30T00:29:49Z,42.805,6.029,13.3019,4.60077,2470.53,2021-7-30T02:31:07Z
2021-07-30T00:32:52Z,42.805,6.029,13.3023,4.60049,2470.52,2021-7-30T02:34:10Z
2021-07-30T00:35:56Z,42.805,6.029,13.3023,4.60062,2470.52,2021-7-30T02:37:13Z
2021-07-30T00:38:59Z,42.805,6.029,13.3006,4.60067,2470.483,2021-7-30T02:40:16Z
2021-07-30T00:42:02Z,42.805,6.029,13.3012,4.60056,2470.507,2021-7-30T02:43:19Z
2021-07-30T00:45:05Z,42.805,6.029,13.3020,4.60054,2470.52,2021-7-30T02:46:22Z
2021-07-30T00:48:08Z,42.805,6.029,13.3009,4.60057,2470.52,2021-7-30T02:49:25Z
2021-07-30T00:51:11Z,42.805,6.029,13.3007,4.60051,2470.507,2021-7-30T02:52:28Z
2021-07-30T00:54:14Z,42.805,6.029,13.3018,4.60046,2470.507,2021-7-30T02:55:32Z
2021-07-30T00:57:17Z,42.805,6.029,13.3003,4.60062,2470.516,2021-7-30T02:58:35Z
2021-07-30T01:00:21Z,42.805,6.029,13.3019,4.60068,2470.507,2021-7-30T03:01:38Z
2021-07-30T01:03:24Z,42.805,6.029,13.3014,4.60075,2470.507,2021-7-30T03:04:41Z
2021-07-30T01:06:27Z,42.805,6.029,13.3028,4.60062,2470.483,2021-7-30T03:07:44Z
2021-07-30T01:09:30Z,42.805,6.029,13.3028,4.60067,2470.497,2021-7-30T03:10:47Z
2021-07-30T01:12:33Z,42.805,6.029,13.3021,4.60076,2470.53,2021-7-30T03:13:50Z
2021-07-30T01:15:36Z,42.805,6.029,13.3031,4.60056,2470.52,2021-7-30T03:16:53Z
2021-07-30T01:18:39Z,42.805,6.029,13.3026,4.60066,2470.52,2021-7-30T03:19:56Z
2021-07-30T01:21:42Z,42.805,6.029,13.3039,4.60055,2470.483,2021-7-30T03:23:00Z
2021-07-30T01:24:46Z,42.805,6.029,13.3051,4.60089,2470.497,2021-7-30T03:26:03Z
2021-07-30T01:27:49Z,42.805,6.029,13.3040,4.60062,2470.497,2021-7-30T03:29:06Z
2021-07-30T01:30:52Z,42.805,6.029,13.3024,4.60069,2470.483,2021-7-30T03:32:09Z
2021-07-30T01:33:55Z,42.805,6.029,13.3022,4.60060,2470.483,2021-7-30T03:35:12Z
2021-07-30T01:36:58Z,42.805,6.029,13.3038,4.60060,2470.483,2021-7-30T03:38:15Z
2021-07-30T01:40:01Z,42.805,6.029,13.3021,4.60048,2470.507,2021-7-30T03:41:18Z
2021-07-30T01:43:04Z,42.805,6.029,13.3035,4.60053,2470.474,2021-7-30T03:44:22Z
2021-07-30T01:46:07Z,42.805,6.029,13.3005,4.60068,2470.474,2021-7-30T03:47:25Z
2021-07-30T01:49:11Z,42.805,6.029,13.3009,4.60074,2470.474,2021-7-30T03:50:28Z
2021-07-30T01:52:14Z,42.805,6.029,13.2993,4.60052,2470.483,2021-7-30T03:53:31Z
2021-07-30T01:55:17Z,42.805,6.029,13.3002,4.60034,2470.46,2021-7-30T03:56:34Z
2021-07-30T01:58:20Z,42.805,6.029,13.3031,4.60067,2470.483,2021-7-30T03:59:37Z
2021-07-30T02:01:23Z,42.805,6.029,13.3014,4.60070,2470.497,2021-7-30T04:02:40Z
2021-07-30T02:04:26Z,42.805,6.029,13.3031,4.60093,2470.437,2021-7-30T04:05:43Z
2021-07-30T02:07:29Z,42.805,6.029,13.3028,4.60051,2470.45,2021-7-30T04:08:46Z
2021-07-30T02:10:32Z,42.805,6.029,13.3019,4.60087,2470.46,2021-7-30T04:11:50Z
2021-07-30T02:13:36Z,42.805,6.029,13.3036,4.60075,2470.474,2021-7-30T04:14:53Z
2021-07-30T02:16:39Z,42.805,6.029,13.3021,4.60068,2470.46,2021-7-30T04:17:56Z
2021-07-30T02:19:42Z,42.805,6.029,13.3026,4.60064,2470.46,2021-7-30T04:20:59Z
2021-07-30T02:22:45Z,42.805,6.029,13.3017,4.60057,2470.474,2021-7-30T04:24:02Z
2021-07-30T02:25:48Z,42.805,6.029,13.3026,4.60060,2470.474,2021-7-30T04:27:05Z
2021-07-30T02:28:51Z,42.805,6.029,13.3017,4.60060,2470.46,2021-7-30T04:30:08Z
2021-07-30T02:31:54Z,42.805,6.029,13.3014,4.60084,2470.474,2021-7-30T04:33:11Z
2021-07-30T02:34:57Z,42.805,6.029,13.3024,4.60062,2470.45,2021-7-30T04:36:15Z
2021-07-30T02:38:01Z,42.805,6.029,13.3006,4.60073,2470.474,2021-7-30T04:39:18Z
2021-07-30T02:41:04Z,42.805,6.029,13.3025,4.60081,2470.45,2021-7-30T04:42:21Z
2021-07-30T02:44:07Z,42.805,6.029,13.3010,4.60078,2470.39,2021-7-30T04:45:24Z
2021-07-30T02:47:10Z,42.805,6.029,13.3015,4.60037,2470.437,2021-7-30T04:48:27Z
2021-07-30T02:50:13Z,42.805,6.029,13.3017,4.60039,2470.437,2021-7-30T04:51:30Z
2021-07-30T02:53:16Z,42.805,6.029,13.3006,4.60062,2470.437,2021-7-30T04:54:33Z
2021-07-30T02:56:19Z,42.805,6.029,13.3006,4.60061,2470.46,2021-7-30T04:57:36Z
2021-07-30T02:59:22Z,42.805,6.029,13.3021,4.60064,2470.474,2021-7-30T05:00:40Z
2021-07-30T03:02:26Z,42.805,6.029,13.3002,4.60049,2470.437,2021-7-30T05:03:43Z
2021-07-30T03:05:29Z,42.805,6.029,13.3031,4.60052,2470.413,2021-7-30T05:06:46Z
2021-07-30T03:08:32Z,42.805,6.029,13.3031,4.60072,2470.45,2021-7-30T05:09:49Z
2021-07-30T03:11:35Z,42.805,6.029,13.3026,4.60069,2470.39,2021-7-30T05:12:52Z
2021-07-30T03:14:38Z,42.805,6.029,13.3041,4.60072,2470.413,2021-7-30T05:15:55Z
2021-07-30T03:17:41Z,42.805,6.029,13.3020,4.60064,2470.427,2021-7-30T05:18:58Z
2021-07-30T03:20:44Z,42.805,6.029,13.3022,4.60067,2470.474,2021-7-30T05:22:01Z
2021-07-30T03:23:47Z,42.805,6.029,13.3027,4.60053,2470.441,2021-7-30T05:25:05Z
2021-07-30T03:26:50Z,42.805,6.029,13.3021,4.60081,2470.427,2021-7-30T05:28:08Z
2021-07-30T03:29:54Z,42.805,6.029,13.3026,4.60075,2470.413,2021-7-30T05:31:11Z
2021-07-30T03:32:57Z,42.805,6.029,13.3006,4.60079,2470.437,2021-7-30T05:34:14Z
2021-07-30T03:36:00Z,42.805,6.029,13.3026,4.60052,2470.437,2021-7-30T05:37:17Z
2021-07-30T03:39:03Z,42.805,6.029,13.3021,4.60069,2470.427,2021-7-30T05:40:20Z
2021-07-30T03:42:06Z,42.805,6.029,13.3003,4.60067,2470.427,2021-7-30T05:43:23Z
2021-07-30T03:45:09Z,42.805,6.029,13.3010,4.60062,2470.427,2021-7-30T05:46:26Z
2021-07-30T03:48:12Z,42.805,6.029,13.3004,4.60076,2470.437,2021-7-30T05:49:30Z
2021-07-30T03:51:15Z,42.805,6.029,13.3028,4.60062,2470.413,2021-7-30T05:52:33Z
2021-07-30T03:54:19Z,42.805,6.029,13.3024,4.60074,2470.366,2021-7-30T05:55:36Z
2021-07-30T03:57:22Z,42.805,6.029,13.3020,4.60065,2470.413,2021-7-30T05:58:39Z
2021-07-30T04:00:25Z,42.805,6.029,13.3000,4.60062,2470.404,2021-7-30T06:01:42Z
2021-07-30T04:03:28Z,42.805,6.029,13.3014,4.60048,2470.413,2021-7-30T06:04:45Z
2021-07-30T04:06:31Z,42.805,6.029,13.3007,4.60066,2470.39,2021-7-30T06:07:48Z
2021-07-30T04:09:34Z,42.805,6.029,13.3000,4.60050,2470.413,2021-7-30T06:10:51Z
2021-07-30T04:12:37Z,42.805,6.029,13.3002,4.60043,2470.39,2021-7-30T06:13:54Z
2021-07-30T04:15:40Z,42.805,6.029,13.2996,4.60063,2470.413,2021-7-30T06:16:58Z
2021-07-30T04:18:44Z,42.805,6.029,13.3011,4.60033,2470.437,2021-7-30T06:20:01Z
2021-07-30T04:21:47Z,42.805,6.029,13.3015,4.60061,2470.39,2021-7-30T06:23:04Z
2021-07-30T04:24:50Z,42.805,6.029,13.3005,4.60047,2470.39,2021-7-30T06:26:07Z
2021-07-30T04:27:53Z,42.805,6.029,13.3030,4.60063,2470.413,2021-7-30T06:29:10Z
2021-07-30T04:30:56Z,42.805,6.029,13.3024,4.60049,2470.39,2021-7-30T06:32:13Z
2021-07-30T04:33:59Z,42.805,6.029,13.3019,4.60063,2470.366,2021-7-30T06:35:16Z
2021-07-30T04:37:02Z,42.805,6.029,13.3021,4.60072,2470.366,2021-7-30T06:38:19Z
2021-07-30T04:40:05Z,42.805,6.029,13.3021,4.60067,2470.404,2021-7-30T06:41:23Z
2021-07-30T04:43:09Z,42.805,6.029,13.3015,4.60049,2470.366,2021-7-30T06:44:26Z
2021-07-30T04:46:12Z,42.805,6.029,13.3048,4.60067,2470.404,2021-7-30T06:47:29Z
2021-07-30T04:49:15Z,42.805,6.029,13.3019,4.60057,2470.366,2021-7-30T06:50:32Z
2021-07-30T04:52:18Z,42.805,6.029,13.3004,4.60046,2470.39,2021-7-30T06:53:35Z
2021-07-30T04:55:21Z,42.805,6.029,13.3019,4.60062,2470.39,2021-7-30T06:56:38Z
2021-07-30T04:58:24Z,42.805,6.029,13.2997,4.60041,2470.404,2021-7-30T06:59:41Z
2021-07-30T05:01:27Z,42.805,6.029,13.3009,4.60052,2470.39,2021-7-30T07:02:44Z
2021-07-30T05:04:30Z,42.805,6.029,13.3014,4.60064,2470.366,2021-7-30T07:05:48Z
2021-07-30T05:07:33Z,42.805,6.029,13.3006,4.60050,2470.366,2021-7-30T07:08:51Z
2021-07-30T05:10:37Z,42.805,6.029,13.3014,4.60076,2470.39,2021-7-30T07:11:54Z
2021-07-30T05:13:40Z,42.805,6.029,13.3037,4.60030,2470.404,2021-7-30T07:14:57Z
2021-07-30T05:16:43Z,42.805,6.029,13.3019,4.60082,2470.38,2021-7-30T07:18:00Z
2021-07-30T05:19:46Z,42.805,6.029,13.3009,4.60106,2470.366,2021-7-30T07:21:03Z
2021-07-30T05:22:49Z,42.805,6.029,13.3011,4.60079,2470.343,2021-7-30T07:24:06Z
2021-07-30T05:25:52Z,42.805,6.029,13.3013,4.60054,2470.39,2021-7-30T07:27:09Z
2021-07-30T05:28:55Z,42.805,6.029,13.3007,4.60068,2470.366,2021-7-30T07:30:13Z
2021-07-30T05:31:58Z,42.805,6.029,13.3015,4.60075,2470.366,2021-7-30T07:33:16Z
2021-07-30T05:35:02Z,42.805,6.029,13.2998,4.60045,2470.366,2021-7-30T07:36:19Z
2021-07-30T05:38:05Z,42.805,6.029,13.3008,4.60059,2470.404,2021-7-30T07:39:22Z
2021-07-30T05:41:08Z,42.805,6.029,13.3006,4.60045,2470.366,2021-7-30T07:42:25Z
2021-07-30T05:44:11Z,42.805,6.029,13.2991,4.60024,2470.404,2021-7-30T07:45:28Z
2021-07-30T05:47:14Z,42.805,6.029,13.3001,4.60025,2470.366,2021-7-30T07:48:31Z
2021-07-30T05:50:17Z,42.805,6.029,13.2998,4.60019,2470.39,2021-7-30T07:51:34Z
2021-07-30T05:53:20Z,42.805,6.029,13.3015,4.60082,2470.39,2021-7-30T07:54:38Z
2021-07-30T05:56:23Z,42.805,6.029,13.3031,4.60089,2470.404,2021-7-30T07:57:41Z
2021-07-30T05:59:27Z,42.805,6.029,13.3008,4.60084,2470.404,2021-7-30T08:00:44Z
2021-07-30T06:02:30Z,42.805,6.029,13.3031,4.60059,2470.404,2021-7-30T08:03:47Z
2021-07-30T06:05:33Z,42.805,6.029,13.3037,4.60021,2470.38,2021-7-30T08:06:50Z
2021-07-30T06:08:36Z,42.805,6.029,13.3014,4.60067,2470.343,2021-7-30T08:09:53Z
2021-07-30T06:11:39Z,42.805,6.029,13.3014,4.60084,2470.38,2021-7-30T08:12:56Z
2021-07-30T06:14:42Z,42.805,6.029,13.3046,4.60079,2470.334,2021-7-30T08:15:59Z
2021-07-30T06:17:45Z,42.805,6.029,13.3020,4.60070,2470.343,2021-7-30T08:19:03Z
2021-07-30T06:20:48Z,42.805,6.029,13.3041,4.60090,2470.38,2021-7-30T08:22:06Z
2021-07-30T06:23:52Z,42.805,6.029,13.3061,4.60104,2470.39,2021-7-30T08:25:09Z
2021-07-30T06:26:55Z,42.805,6.029,13.3054,4.60049,2470.38,2021-7-30T08:28:12Z
2021-07-30T06:29:58Z,42.805,6.029,13.3038,4.60125,2470.38,2021-7-30T08:31:15Z
2021-07-30T06:33:01Z,42.805,6.029,13.3039,4.60106,2470.371,2021-7-30T08:34:18Z
2021-07-30T06:36:04Z,42.805,6.029,13.3049,4.60098,2470.366,2021-7-30T08:37:21Z
2021-07-30T06:39:07Z,42.805,6.029,13.3051,4.60041,2470.404,2021-7-30T08:40:24Z
2021-07-30T06:42:10Z,42.805,6.029,13.3016,4.60023,2470.427,2021-7-30T08:43:28Z
2021-07-30T06:45:13Z,42.805,6.029,13.3012,4.60017,2470.366,2021-7-30T08:46:31Z
2021-07-30T06:48:17Z,42.805,6.029,13.3005,4.60028,2470.357,2021-7-30T08:49:34Z
2021-07-30T06:51:20Z,42.805,6.029,13.3010,4.60043,2470.39,2021-7-30T08:52:37Z
2021-07-30T06:54:23Z,42.805,6.029,13.3002,4.60031,2470.357,2021-7-30T08:55:40Z
2021-07-30T06:57:26Z,42.805,6.029,13.3013,4.60039,2470.366,2021-7-30T08:58:43Z
2021-07-30T07:00:29Z,42.805,6.029,13.3023,4.60026,2470.38,2021-7-30T09:01:46Z
2021-07-30T07:03:32Z,42.805,6.029,13.3000,4.60020,2470.366,2021-7-30T09:04:49Z
2021-07-30T07:06:35Z,42.805,6.029,13.3020,4.60040,2470.39,2021-7-30T09:07:53Z
2021-07-30T07:09:38Z,42.805,6.029,13.3014,4.60032,2470.39,2021-7-30T09:10:56Z
2021-07-30T07:12:42Z,42.805,6.029,13.3011,4.60009,2470.366,2021-7-30T09:13:59Z
2021-07-30T07:15:45Z,42.805,6.029,13.3005,4.60046,2470.39,2021-7-30T09:17:02Z
2021-07-30T07:18:48Z,42.805,6.029,13.3007,4.60020,2470.366,2021-7-30T09:20:05Z
2021-07-30T07:21:51Z,42.805,6.029,13.3006,4.60027,2470.366,2021-7-30T09:23:08Z
2021-07-30T07:24:54Z,42.805,6.029,13.3008,4.60042,2470.343,2021-7-30T09:26:11Z
2021-07-30T07:27:57Z,42.805,6.029,13.3010,4.60017,2470.404,2021-7-30T09:29:14Z
2021-07-30T07:31:00Z,42.805,6.029,13.3000,4.60036,2470.39,2021-7-30T09:32:17Z
2021-07-30T07:34:03Z,42.805,6.029,13.3003,4.60029,2470.39,2021-7-30T09:35:21Z
2021-07-30T07:37:07Z,42.805,6.029,13.3004,4.60061,2470.38,2021-7-30T09:38:24Z
2021-07-30T07:40:10Z,42.805,6.029,13.3002,4.60046,2470.413,2021-7-30T09:41:27Z
2021-07-30T07:43:13Z,42.805,6.029,13.3009,4.60029,2470.39,2021-7-30T09:44:30Z
2021-07-30T07:46:16Z,42.805,6.029,13.3011,4.60011,2470.39,2021-7-30T09:47:33Z
2021-07-30T07:49:19Z,42.805,6.029,13.3000,4.60012,2470.366,2021-7-30T09:50:36Z
2021-07-30T07:52:22Z,42.805,6.029,13.3006,4.60024,2470.404,2021-7-30T09:53:39Z
2021-07-30T07:55:25Z,42.805,6.029,13.3023,4.60014,2470.39,2021-7-30T09:56:42Z
2021-07-30T07:58:28Z,42.805,6.029,13.3006,4.60029,2470.39,2021-7-30T09:59:46Z
2021-07-30T08:01:32Z,42.805,6.029,13.3009,4.60021,2470.404,2021-7-30T10:02:49Z
2021-07-30T08:04:35Z,42.805,6.029,13.3026,4.60018,2470.413,2021-7-30T10:05:52Z
2021-07-30T08:07:38Z,42.805,6.029,13.3021,4.60014,2470.39,2021-7-30T10:08:55Z
2021-07-30T08:10:41Z,42.805,6.029,13.3022,4.60029,2470.39,2021-7-30T10:11:58Z
2021-07-30T08:13:44Z,42.805,6.029,13.3018,4.60043,2470.404,2021-7-30T10:15:01Z
2021-07-30T08:16:47Z,42.805,6.029,13.3013,4.60041,2470.427,2021-7-30T10:18:04Z
2021-07-30T08:19:50Z,42.805,6.029,13.3026,4.60038,2470.413,2021-7-30T10:21:07Z
2021-07-30T08:22:53Z,42.805,6.029,13.3012,4.60014,2470.427,2021-7-30T10:24:11Z
2021-07-30T08:25:57Z,42.805,6.029,13.3004,4.60005,2470.404,2021-7-30T10:27:14Z
2021-07-30T08:29:00Z,42.805,6.029,13.3020,4.60036,2470.427,2021-7-30T10:30:17Z
2021-07-30T08:32:03Z,42.805,6.029,13.2993,4.60031,2470.45,2021-7-30T10:33:20Z
2021-07-30T08:35:06Z,42.805,6.029,13.3004,4.60022,2470.413,2021-7-30T10:36:23Z
2021-07-30T08:38:09Z,42.805,6.029,13.3010,4.60014,2470.413,2021-7-30T10:39:26Z
2021-07-30T08:41:12Z,42.805,6.029,13.3003,4.60038,2470.427,2021-7-30T10:42:29Z
2021-07-30T08:44:15Z,42.805,6.029,13.3016,4.60042,2470.39,2021-7-30T10:45:33Z
2021-07-30T08:47:18Z,42.805,6.029,13.3021,4.60028,2470.38,2021-7-30T10:48:36Z
2021-07-30T08:50:22Z,42.805,6.029,13.3050,4.60016,2470.427,2021-7-30T10:51:39Z
2021-07-30T08:53:25Z,42.805,6.029,13.3020,4.60029,2470.39,2021-7-30T10:54:42Z
2021-07-30T08:56:28Z,42.805,6.029,13.3008,4.60019,2470.427,2021-7-30T10:57:45Z
2021-07-30T08:59:31Z,42.805,6.029,13.3019,4.60026,2470.413,2021-7-30T11:00:48Z
2021-07-30T09:02:34Z,42.805,6.029,13.3018,4.60031,2470.404,2021-7-30T11:03:51Z
2021-07-30T09:05:37Z,42.805,6.029,13.3021,4.60029,2470.427,2021-7-30T11:06:54Z
2021-07-30T09:08:40Z,42.805,6.029,13.3004,4.60030,2470.427,2021-7-30T11:09:58Z
2021-07-30T09:11:43Z,42.805,6.029,13.3011,4.60013,2470.39,2021-7-30T11:13:01Z
2021-07-30T09:14:47Z,42.805,6.029,13.3011,4.60033,2470.437,2021-7-30T11:16:04Z
2021-07-30T09:17:50Z,42.805,6.029,13.3007,4.60020,2470.404,2021-7-30T11:19:07Z
2021-07-30T09:20:53Z,42.805,6.029,13.3032,4.60021,2470.437,2021-7-30T11:22:10Z
2021-07-30T09:23:56Z,42.805,6.029,13.3007,4.60030,2470.413,2021-7-30T11:25:13Z
2021-07-30T09:26:59Z,42.805,6.029,13.3028,4.60016,2470.437,2021-7-30T11:28:16Z
2021-07-30T09:30:02Z,42.805,6.029,13.3021,4.60022,2470.437,2021-7-30T11:31:19Z
2021-07-30T09:33:05Z,42.805,6.029,13.3006,4.60031,2470.46,2021-7-30T11:34:23Z
2021-07-30T09:36:08Z,42.805,6.029,13.3021,4.60034,2470.437,2021-7-30T11:37:26Z
2021-07-30T09:39:12Z,42.805,6.029,13.3009,4.60023,2470.413,2021-7-30T11:40:29Z
2021-07-30T09:42:15Z,42.805,6.029,13.3059,4.60017,2470.437,2021-7-30T11:43:32Z
2021-07-30T09:45:18Z,42.805,6.029,13.3021,4.60023,2470.474,2021-7-30T11:46:35Z
2021-07-30T09:48:21Z,42.805,6.029,13.3014,4.60030,2470.427,2021-7-30T11:49:38Z
2021-07-30T09:51:24Z,42.805,6.029,13.3020,4.60035,2470.437,2021-7-30T11:52:41Z
2021-07-30T09:54:27Z,42.805,6.029,13.3033,4.60024,2470.413,2021-7-30T11:55:44Z
2021-07-30T09:57:30Z,42.805,6.029,13.3041,4.60039,2470.45,2021-7-30T11:58:48Z
2021-07-30T10:00:34Z,42.805,6.029,13.3014,4.60037,2470.46,2021-7-30T12:01:51Z
2021-07-30T10:03:37Z,42.805,6.029,13.3026,4.60014,2470.427,2021-7-30T12:04:54Z
2021-07-30T10:06:40Z,42.805,6.029,13.3022,4.60021,2470.437,2021-7-30T12:07:57Z
2021-07-30T10:09:43Z,42.805,6.029,13.3019,4.60021,2470.437,2021-7-30T12:11:00Z
2021-07-30T10:12:46Z,42.805,6.029,13.3017,4.60040,2470.437,2021-7-30T12:14:03Z
2021-07-30T10:15:49Z,42.805,6.029,13.3023,4.60019,2470.46,2021-7-30T12:17:06Z
2021-07-30T10:18:52Z,42.805,6.029,13.3012,4.60039,2470.474,2021-7-30T12:20:09Z
2021-07-30T10:21:55Z,42.805,6.029,13.3016,4.60028,2470.45,2021-7-30T12:23:13Z
2021-07-30T10:24:59Z,42.805,6.029,13.3017,4.60055,2470.413,2021-7-30T12:26:16Z
2021-07-30T10:28:02Z,42.805,6.029,13.3033,4.60018,2470.45,2021-7-30T12:29:19Z
2021-07-30T10:31:05Z,42.805,6.029,13.3030,4.60024,2470.437,2021-7-30T12:32:22Z
2021-07-30T10:34:08Z,42.805,6.029,13.3015,4.60035,2470.46,2021-7-30T12:35:25Z
2021-07-30T10:37:11Z,42.805,6.029,13.3028,4.60031,2470.437,2021-7-30T12:38:28Z
2021-07-30T10:40:14Z,42.805,6.029,13.3018,4.60062,2470.437,2021-7-30T12:41:31Z
2021-07-30T10:43:17Z,42.805,6.029,13.3016,4.60041,2470.474,2021-7-30T12:44:35Z
2021-07-30T10:46:20Z,42.805,6.029,13.3009,4.60097,2470.46,2021-7-30T12:47:38Z
2021-07-30T10:49:24Z,42.805,6.029,13.3021,4.60076,2470.45,2021-7-30T12:50:41Z
2021-07-30T10:52:27Z,42.805,6.029,13.3042,4.60031,2470.474,2021-7-30T12:53:44Z
2021-07-30T10:55:30Z,42.805,6.029,13.3050,4.60064,2470.474,2021-7-30T12:56:47Z
2021-07-30T10:58:33Z,42.805,6.029,13.3040,4.60023,2470.474,2021-7-30T12:59:50Z
2021-07-30T11:01:36Z,42.805,6.029,13.3003,4.60030,2470.46,2021-7-30T13:02:53Z
2021-07-30T11:04:39Z,42.805,6.029,13.3028,4.60059,2470.483,2021-7-30T13:05:56Z
2021-07-30T11:07:42Z,42.805,6.029,13.3010,4.60079,2470.437,2021-7-30T13:09:00Z
2021-07-30T11:10:45Z,42.805,6.029,13.3039,4.60092,2470.474,2021-7-30T13:12:03Z
2021-07-30T11:13:49Z,42.805,6.029,13.3031,4.60081,2470.45,2021-7-30T13:15:06Z
2021-07-30T11:16:52Z,42.805,6.029,13.3029,4.60052,2470.46,2021-7-30T13:18:09Z
2021-07-30T11:19:55Z,42.805,6.029,13.3028,4.60084,2470.45,2021-7-30T13:21:12Z
2021-07-30T11:22:58Z,42.805,6.029,13.3014,4.60047,2470.497,2021-7-30T13:24:15Z
2021-07-30T11:26:01Z,42.805,6.029,13.3024,4.60031,2470.46,2021-7-30T13:27:18Z
2021-07-30T11:29:04Z,42.805,6.029,13.3019,4.60074,2470.437,2021-7-30T13:30:21Z
2021-07-30T11:32:07Z,42.805,6.029,13.3017,4.60067,2470.427,2021-7-30T13:33:25Z
2021-07-30T11:35:10Z,42.805,6.029,13.3033,4.60071,2470.46,2021-7-30T13:36:28Z
2021-07-30T11:38:14Z,42.805,6.029,13.3046,4.60097,2470.45,2021-7-30T13:39:31Z
2021-07-30T11:41:17Z,42.805,6.029,13.3068,4.60080,2470.483,2021-7-30T13:42:34Z
2021-07-30T11:44:20Z,42.805,6.029,13.3059,4.60108,2470.46,2021-7-30T13:45:37Z
2021-07-30T11:47:23Z,42.805,6.029,13.3049,4.60027,2470.46,2021-7-30T13:48:40Z
2021-07-30T11:50:26Z,42.805,6.029,13.3047,4.60053,2470.437,2021-7-30T13:51:43Z
2021-07-30T11:53:29Z,42.805,6.029,13.3040,4.60072,2470.437,2021-7-30T13:54:46Z
2021-07-30T11:56:32Z,42.805,6.029,13.3023,4.60050,2470.46,2021-7-30T13:57:50Z
2021-07-30T11:59:36Z,42.805,6.029,13.3019,4.60077,2470.46,2021-7-30T14:00:53Z
2021-07-30T12:02:39Z,42.805,6.029,13.3035,4.60068,2470.45,2021-7-30T14:03:56Z
2021-07-30T12:05:42Z,42.805,6.029,13.3033,4.60033,2470.437,2021-7-30T14:06:59Z
2021-07-30T12:08:45Z,42.805,6.029,13.3013,4.60063,2470.46,2021-7-30T14:10:02Z
2021-07-30T12:11:48Z,42.805,6.029,13.3038,4.60057,2470.45,2021-7-30T14:13:05Z
2021-07-30T12:14:51Z,42.805,6.029,13.3068,4.60043,2470.474,2021-7-30T14:16:08Z
2021-07-30T12:17:54Z,42.805,6.029,13.3063,4.60064,2470.45,2021-7-30T14:19:12Z
2021-07-30T12:20:57Z,42.805,6.029,13.3057,4.60054,2470.399,2021-7-30T14:22:15Z
2021-07-30T12:24:01Z,42.805,6.029,13.3064,4.60065,2470.483,2021-7-30T14:25:18Z
2021-07-30T12:27:04Z,42.805,6.029,13.3044,4.60035,2470.437,2021-7-30T14:28:21Z
2021-07-30T12:30:07Z,42.805,6.029,13.3022,4.60074,2470.46,2021-7-30T14:31:24Z
2021-07-30T12:33:10Z,42.805,6.029,13.3054,4.60087,2470.413,2021-7-30T14:34:27Z
2021-07-30T12:36:13Z,42.805,6.029,13.3065,4.60067,2470.437,2021-7-30T14:37:30Z
2021-07-30T12:39:16Z,42.805,6.029,13.3040,4.60072,2470.46,2021-7-30T14:40:33Z
2021-07-30T12:42:19Z,42.805,6.029,13.3070,4.60065,2470.45,2021-7-30T14:43:37Z
2021-07-30T12:45:22Z,42.805,6.029,13.3068,4.60085,2470.45,2021-7-30T14:46:40Z
2021-07-30T12:48:26Z,42.805,6.029,13.3073,4.60076,2470.413,2021-7-30T14:49:43Z
2021-07-30T12:51:29Z,42.805,6.029,13.3059,4.60097,2470.404,2021-7-30T14:52:46Z
2021-07-30T12:54:32Z,42.805,6.029,13.3073,4.60087,2470.427,2021-7-30T14:55:49Z
2021-07-30T12:57:35Z,42.805,6.029,13.3054,4.60074,2470.413,2021-7-30T14:58:52Z
2021-07-30T13:00:38Z,42.805,6.029,13.3031,4.60084,2470.45,2021-7-30T15:01:55Z
2021-07-30T13:03:41Z,42.805,6.029,13.3026,4.60085,2470.39,2021-7-30T15:04:58Z
2021-07-30T13:06:44Z,42.805,6.029,13.3044,4.60089,2470.45,2021-7-30T15:08:02Z
2021-07-30T13:09:47Z,42.805,6.029,13.3038,4.60051,2470.437,2021-7-30T15:11:05Z
2021-07-30T13:12:51Z,42.805,6.029,13.3018,4.60064,2470.45,2021-7-30T15:14:08Z
2021-07-30T13:15:54Z,42.805,6.029,13.3023,4.60068,2470.427,2021-7-30T15:17:11Z
2021-07-30T13:18:57Z,42.805,6.029,13.3012,4.60069,2470.413,2021-7-30T15:20:14Z
2021-07-30T13:22:00Z,42.805,6.029,13.3007,4.60052,2470.427,2021-7-30T15:23:17Z
2021-07-30T13:25:03Z,42.805,6.029,13.2998,4.60072,2470.437,2021-7-30T15:26:20Z
2021-07-30T13:28:06Z,42.805,6.029,13.2998,4.60064,2470.413,2021-7-30T15:29:23Z
2021-07-30T13:31:09Z,42.805,6.029,13.3006,4.60069,2470.413,2021-7-30T15:32:27Z
2021-07-30T13:34:13Z,42.805,6.029,13.3003,4.60054,2470.413,2021-7-30T15:35:30Z
2021-07-30T13:37:16Z,42.805,6.029,13.3002,4.60078,2470.404,2021-7-30T15:38:33Z
2021-07-30T13:40:19Z,42.805,6.029,13.2996,4.60068,2470.437,2021-7-30T15:41:36Z
2021-07-30T13:43:22Z,42.805,6.029,13.3015,4.60052,2470.437,2021-7-30T15:44:39Z
2021-07-30T13:46:25Z,42.805,6.029,13.3034,4.60061,2470.427,2021-7-30T15:47:42Z
2021-07-30T13:49:28Z,42.805,6.029,13.3006,4.60046,2470.437,2021-7-30T15:50:45Z
2021-07-30T13:52:31Z,42.805,6.029,13.2998,4.60050,2470.413,2021-7-30T15:53:48Z
2021-07-30T13:55:34Z,42.805,6.029,13.3000,4.60057,2470.413,2021-7-30T15:56:52Z
2021-07-30T13:58:38Z,42.805,6.029,13.2999,4.60043,2470.45,2021-7-30T15:59:55Z
2021-07-30T14:01:41Z,42.805,6.029,13.2997,4.60042,2470.427,2021-7-30T16:02:58Z
2021-07-30T14:04:44Z,42.805,6.029,13.3002,4.60061,2470.404,2021-7-30T16:06:01Z
2021-07-30T14:07:47Z,42.805,6.029,13.3004,4.60078,2470.427,2021-7-30T16:09:04Z
2021-07-30T14:10:50Z,42.805,6.029,13.3008,4.60061,2470.413,2021-7-30T16:12:07Z
2021-07-30T14:13:53Z,42.805,6.029,13.2999,4.60053,2470.413,2021-7-30T16:15:10Z
2021-07-30T14:16:56Z,42.805,6.029,13.3000,4.60042,2470.413,2021-7-30T16:18:13Z
2021-07-30T14:19:59Z,42.805,6.029,13.3000,4.60052,2470.427,2021-7-30T16:21:17Z
2021-07-30T14:23:03Z,42.805,6.029,13.2998,4.60051,2470.39,2021-7-30T16:24:20Z
2021-07-30T14:26:06Z,42.805,6.029,13.3000,4.60049,2470.404,2021-7-30T16:27:23Z
2021-07-30T14:29:09Z,42.805,6.029,13.3002,4.60044,2470.404,2021-7-30T16:30:26Z
2021-07-30T14:32:12Z,42.805,6.029,13.3004,4.60046,2470.437,2021-7-30T16:33:29Z
2021-07-30T14:35:15Z,42.805,6.029,13.3004,4.60062,2470.427,2021-7-30T16:36:32Z
2021-07-30T14:38:18Z,42.805,6.029,13.3001,4.60055,2470.404,2021-7-30T16:39:35Z
2021-07-30T14:41:21Z,42.805,6.029,13.3010,4.60059,2470.413,2021-7-30T16:42:38Z
2021-07-30T14:44:24Z,42.805,6.029,13.3014,4.60049,2470.38,2021-7-30T16:45:42Z
2021-07-30T14:47:28Z,42.805,6.029,13.3009,4.60085,2470.39,2021-7-30T16:48:45Z
2021-07-30T14:50:31Z,42.805,6.029,13.3004,4.60037,2470.413,2021-7-30T16:51:48Z
2021-07-30T14:53:34Z,42.805,6.029,13.3004,4.60029,2470.413,2021-7-30T16:54:51Z
2021-07-30T14:56:37Z,42.805,6.029,13.3010,4.60079,2470.39,2021-7-30T16:57:54Z
2021-07-30T14:59:40Z,42.805,6.029,13.3004,4.60021,2470.413,2021-7-30T17:00:57Z
2021-07-30T15:02:43Z,42.805,6.029,13.3003,4.60044,2470.404,2021-7-30T17:04:00Z
2021-07-30T15:05:46Z,42.805,6.029,13.3005,4.60052,2470.39,2021-7-30T17:07:04Z
2021-07-30T15:08:49Z,42.805,6.029,13.3034,4.60060,2470.413,2021-7-30T17:10:07Z
2021-07-30T15:11:53Z,42.805,6.029,13.2996,4.60061,2470.404,2021-7-30T17:13:10Z
2021-07-30T15:14:56Z,42.805,6.029,13.3020,4.60059,2470.404,2021-7-30T17:16:13Z